Temp
6 6 6 7 7 7 7 7 7 7 7 6 7 7 7 6 5 5 4 4 3 3 2 1 1 1 1 0 -1 -2 -3 -2 -3 -3 -4 -5 -6 -9 -10 -9 -10 -10 -9 -8
5 6 6 6 6 6 6 6 7 7 6 7 6 6 6 5 4 4 4 3 3 3 2 2 1 1 0 -0 -1 -2 -3 -3 -3 -4 -4 -5 -7 -8 -8 -9 -10 -9 -9 -9
4 5 5 5 6 6 6 6 6 6 6 6 6 6 6 5 5 4 3 3 2 2 2 1 -0 0 -0 -1 -2 -2 -3 -4 -4 -5 -6 -7 -8 -8 -9 -9 -9 -9 -9 -10
4 4 -0 5 5 6 6 5 5 5 6 6 5 5 4 4 4 4 3 2 2 1 0 -0 -1 -2 -2 -2 -3 -4 -4 -4 -4 -5 -8 -8 -9 -9 -9 -9 -9 -10 -10 -11
3 3 4 5 5 5 5 5 5 5 5 5 5 4 4 4 3 3 2 2 1 0 -0 -1 -1 -2 -2 -3 -3 -4 -4 -5 -6 -8 -8 -10 -9 -9 -9 -9 -9 -10 -11 -12
3 3 -2 4 5 5 5 4 3 4 4 4 4 4 3 2 1 1 1 0 0 -0 -1 -1 -2 -2 -3 -3 -4 -4 -5 -7 -8 -8 -10 -9 -9 -9 -10 -10 -10 -10 -12 -12
2 3 3 4 4 4 4 3 3 3 3 3 3 2 1 1 1 0 0 -0 -1 -1 -2 -2 -3 -3 -4 -4 -4 -6 -8 -8 -8 -9 -9 -9 -10 -10 -10 -10 -11 -11 -12 -13
1 1 1 3 3 3 3 3 3 2 2 2 2 1 0 0 -0 -0 -1 -1 -1 -2 -3 -3 -4 -4 -4 -5 -7 -8 -8 -9 -9 -9 -10 -10 -10 -11 -11 -12 -12 -13 -13 -13
3 3 3 2 2 3 2 3 3 2 2 1 1 -0 -0 -0 -1 -1 -1 -2 -3 -4 -4 -5 -5 -5 -6 -7 -8 -8 -9 -9 -10 -10 -10 -10 -11 -11 -12 -12 -13 -13 -14 -14
2 2 2 2 2 2 2 2 1 1 1 1 -0 -1 -1 -0 -1 -2 -3 -4 -5 -5 -5 -6 -6 -7 -8 -8 -8 -9 -9 -10 -10 -10 -11 -11 -11 -12 -12 -12 -13 -14 -14 -14
2 2 2 1 1 1 1 1 1 1 -0 -1 -1 -1 -1 -3 -4 -4 -5 -5 -5 -6 -6 -7 -8 -8 -8 -9 -9 -9 -10 -10 -10 -11 -11 -12 -12 -12 -13 -13 -14 -14 -15 -15
2 2 2 1 1 1 1 0 -0 -0 -1 -1 -2 -3 -4 -4 -4 -5 -6 -6 -6 -7 -8 -8 -9 -9 -10 -10 -10 -10 -10 -10 -11 -11 -12 -12 -12 -13 -13 -14 -15 -15 -15 -15
2 2 1 1 1 0 -0 -0 -1 -1 -2 -2 -3 -3 -4 -5 -6 -6 -6 -6 -7 -8 -9 -10 -10 -10 -10 -10 -10 -10 -10 -10 -11 -11 -12 -12 -13 -14 -14 -14 -15 -15 -16 -16
1 1 1 0 0 -0 -1 -1 -1 -2 -2 -3 -4 -4 -4 -6 -7 -7 -7 -8 -9 -9 -10 -10 -10 -10 -10 -11 -11 -11 -12 -12 -12 -12 -13 -13 -14 -15 -16 -15 -16 -15 -16 -16
1 1 1 0 -0 -1 -1 -2 -2 -3 -3 -4 -5 -6 -7 -7 -7 -7 -8 -9 -10 -10 -10 -11 -11 -11 -11 -11 -11 -12 -12 -12 -12 -12 -13 -15 -15 -15 -15 -15 -16 -16 -16 -16
1 0 0 -1 -1 -2 -2 -3 -3 -4 -5 -5 -6 -7 -7 -8 -9 -9 -10 -10 -10 -10 -10 -10 -11 -11 -11 -11 -11 -11 -11 -12 -13 -13 -14 -14 -15 -16 -15 -16 -16 -16 -16 -16
0 -0 -1 -2 -3 -3 -3 -4 -5 -5 -6 -7 -7 -8 -9 -9 -10 -10 -10 -11 -11 -11 -11 -11 -11 -11 -11 -11 -12 -12 -12 -12 -13 -14 -14 -15 -16 -16 -16 -17 -17 -17 -17 -17
-1 -1 -2 -3 -3 -4 -5 -6 -6 -7 -8 -8 -9 -9 -9 -10 -10 -10 -11 -11 -11 -11 -11 -11 -11 -11 -11 -12 -12 -12 -13 -13 -14 -15 -15 -16 -17 -17 -17 -18 -18 -18 -17 -17
-2 -2 -3 -3 -6 -6 -7 -7 -8 -8 -9 -9 -9 -10 -10 -10 -11 -11 -11 -11 -11 -11 -11 -12 -11 -11 -12 -12 -12 -13 -14 -15 -15 -16 -16 -17 -17 -18 -18 -18 -18 -18 -18 -18
-2 -4 -5 -7 -7 -7 -8 -8 -9 -9 -10 -10 -10 -11 -11 -11 -11 -12 -12 -12 -12 -12 -12 -12 -12 -12 -13 -13 -14 -15 -15 -16 -16 -17 -18 -19 -18 -18 -19 -19 -19 -19 -19 -19
-6 -6 -7 -7 -8 -8 -9 -9 -10 -10 -10 -11 -11 -11 -12 -12 -12 -12 -12 -12 -12 -12 -12 -13 -13 -13 -14 -15 -16 -16 -17 -17 -18 -19 -20 -20 -20 -20 -20 -19 -19 -19 -19 -19
-7 -7 -8 -8 -9 -9 -10 -10 -11 -11 -11 -11 -12 -12 -12 -12 -12 -13 -12 -12 -12 -13 -13 -14 -14 -15 -16 -17 -17 -17 -18 -19 -19 -21 -21 -21 -21 -21 -21 -20 -20 -20 -20 -20
-8 -8 -9 -10 -10 -10 -11 -11 -11 -11 -11 -11 -12 -12 -12 -13 -13 -13 -13 -13 -13 -14 -14 -16 -16 -17 -18 -18 -19 -19 -20 -20 -21 -22 -22 -22 -22 -22 -22 -21 -21 -21 -20 -20
-9 -10 -10 -10 -11 -11 -11 -12 -12 -12 -12 -12 -12 -13 -13 -13 -13 -13 -14 -14 -15 -16 -16 -17 -18 -18 -19 -19 -20 -20 -21 -21 -22 -22 -23 -23 -23 -23 -22 -22 -22 -21 -21 -21
-10 -10 -11 -11 -11 -12 -12 -12 -12 -12 -13 -13 -13 -13 -13 -13 -14 -14 -15 -15 -16 -17 -18 -18 -18 -19 -20 -20 -20 -21 -21 -21 -22 -22 -23 -23 -23 -23 -23 -23 -22 -22 -22 -22
-10 -11 -11 -12 -12 -12 -13 -13 -13 -13 -14 -14 -14 -14 -14 -14 -15 -15 -16 -17 -17 -18 -19 -19 -19 -20 -20 -21 -21 -21 -21 -22 -22 -22 -23 -23 -23 -23 -23 -23 -23 -23 -22 -22
-11 -12 -12 -12 -13 -13 -14 -14 -14 -14 -14 -14 -15 -15 -15 -15 -16 -17 -17 -18 -18 -19 -19 -19 -20 -20 -21 -21 -21 -22 -22 -22 -22 -23 -23 -23 -23 -23 -23 -23 -23 -23 -23 -23
Height
3100 3102 3102 3102 3103 3103 3104 3104 3103 3105 3105 3105 3104 3103 3103 3103 3105 3104 3104 3104 3102 3102 3102 3102 3102 3101 3100 3100 3098 3095 3091 3088 3085 3082 3077 3073 3069 3064 3059 3055 3051 3048 3043 3038
3097 3098 3098 3096 3098 3099 3099 3099 3099 3100 3101 3102 3100 3099 3100 3101 3101 3102 3102 3101 3100 3099 3098 3098 3097 3096 3096 3092 3089 3086 3083 3081 3077 3074 3070 3064 3059 3054 3052 3048 3044 3040 3034 3028
3093 3094 3094 3093 3093 3094 3094 3094 3096 3097 3096 3096 3096 3095 3096 3096 3097 3097 3098 3097 3096 3096 3094 3093 3090 3088 3086 3082 3080 3078 3076 3073 3068 3064 3059 3054 3053 3049 3044 3041 3037 3031 3025 3019
3090 3091 3093 3088 3088 3089 3090 3090 3091 3092 3089 3091 3091 3091 3091 3090 3091 3092 3092 3091 3090 3089 3086 3084 3082 3079 3077 3074 3071 3069 3067 3064 3060 3055 3052 3049 3045 3043 3039 3034 3028 3023 3017 3012
3087 3086 3086 3085 3085 3086 3086 3087 3087 3087 3086 3087 3088 3087 3088 3086 3086 3085 3086 3086 3085 3084 3082 3079 3076 3074 3070 3067 3064 3061 3057 3053 3051 3049 3045 3042 3040 3036 3032 3026 3021 3015 3009 3004
3083 3083 3083 3080 3080 3082 3083 3083 3083 3082 3082 3083 3084 3084 3084 3083 3082 3081 3081 3080 3079 3077 3076 3074 3071 3068 3065 3062 3057 3053 3048 3047 3045 3040 3039 3036 3032 3028 3022 3017 3011 3007 3002 2995
3077 3078 3076 3076 3077 3079 3080 3084 3080 3079 3079 3080 3080 3081 3078 3076 3078 3077 3076 3074 3071 3070 3068 3065 3063 3061 3059 3055 3050 3047 3044 3041 3037 3034 3032 3028 3024 3018 3013 3008 3002 2997 2992 2987
3074 3075 3074 3071 3073 3076 3075 3075 3076 3076 3075 3076 3075 3075 3072 3073 3072 3070 3068 3066 3064 3062 3060 3058 3056 3053 3049 3045 3043 3041 3037 3033 3030 3028 3025 3022 3017 3012 3006 3000 2994 2988 2983 2979
3070 3069 3068 3067 3068 3069 3070 3070 3072 3074 3072 3070 3069 3068 3067 3066 3065 3065 3063 3061 3058 3056 3053 3051 3048 3046 3042 3039 3036 3032 3030 3027 3025 3022 3017 3012 3008 3004 2998 2991 2985 2980 2975 2970
3066 3066 3065 3062 3063 3066 3068 3067 3066 3066 3067 3066 3064 3059 3060 3060 3059 3058 3056 3054 3052 3050 3047 3044 3040 3037 3034 3031 3029 3026 3024 3021 3018 3013 3009 3004 2998 2993 2987 2982 2976 2971 2965 2960
3062 3060 3060 3060 3060 3061 3062 3061 3061 3062 3061 3059 3058 3055 3053 3053 3052 3050 3048 3046 3044 3042 3038 3036 3033 3031 3028 3026 3023 3020 3017 3014 3009 3004 2999 2994 2989 2983 2977 2972 2965 2960 2956 2951
3055 3055 3056 3057 3055 3055 3055 3056 3056 3055 3054 3052 3051 3050 3048 3046 3044 3043 3041 3039 3037 3034 3032 3030 3027 3025 3022 3019 3016 3012 3008 3004 3000 2995 2990 2984 2977 2973 2969 2962 2957 2952 2946 2942
3049 3050 3050 3051 3051 3051 3050 3050 3049 3048 3047 3046 3045 3044 3042 3040 3038 3036 3034 3032 3030 3028 3025 3023 3022 3020 3016 3013 3008 3004 2999 2994 2988 2982 2976 2971 2965 2961 2955 2953 2947 2943 2938 2933
3042 3044 3044 3045 3044 3044 3044 3043 3042 3041 3041 3039 3037 3036 3034 3033 3031 3030 3028 3026 3024 3022 3020 3018 3016 3013 3009 3005 3000 2995 2989 2984 2977 2972 2966 2960 2954 2949 2945 2940 2935 2933 2930 2924
3035 3036 3038 3039 3039 3038 3037 3036 3035 3034 3033 3032 3030 3029 3028 3027 3025 3023 3023 3021 3020 3018 3015 3013 3009 3006 3002 2997 2992 2986 2980 2974 2967 2960 2953 2947 2942 2938 2934 2929 2925 2921 2919 2916
3030 3030 3031 3031 3031 3030 3030 3029 3028 3028 3026 3024 3024 3024 3023 3022 3021 3019 3018 3016 3015 3012 3009 3006 3002 2998 2992 2986 2980 2974 2967 2960 2953 2945 2938 2933 2929 2926 2922 2918 2913 2909 2907 2905
3024 3025 3025 3024 3024 3024 3024 3023 3023 3021 3021 3021 3020 3020 3019 3018 3017 3015 3013 3011 3008 3004 3002 2997 2992 2987 2980 2974 2966 2959 2952 2945 2938 2930 2924 2918 2915 2912 2910 2907 2901 2899 2897 2895
3016 3017 3017 3017 3018 3019 3017 3017 3017 3017 3017 3017 3016 3016 3015 3014 3012 3010 3008 3005 3001 2998 2993 2987 2982 2976 2969 2961 2952 2945 2937 2929 2922 2916 2910 2905 2902 2900 2899 2894 2891 2889 2888 2886
3008 3009 3009 3012 3013 3012 3013 3013 3013 3013 3013 3013 3012 3011 3010 3008 3006 3003 3000 2996 2993 2988 2983 2977 2971 2962 2954 2946 2938 2931 2923 2916 2910 2904 2899 2895 2892 2890 2888 2886 2884 2881 2879 2877
3003 3004 3005 3007 3008 3009 3009 3009 3009 3010 3009 3009 3008 3006 3004 3002 2999 2996 2992 2987 2982 2976 2970 2964 2957 2950 2942 2935 2926 2919 2912 2905 2899 2893 2889 2886 2885 2881 2879 2877 2875 2872 2870 2868
2999 3000 3002 3003 3004 3005 3005 3006 3006 3005 3005 3004 3003 3000 2998 2995 2991 2987 2983 2978 2973 2967 2960 2953 2946 2939 2931 2923 2915 2908 2902 2895 2889 2884 2881 2877 2875 2871 2869 2867 2865 2863 2861 2858
2996 2998 2999 3000 3001 3001 3001 3001 3001 3001 2999 2998 2996 2993 2990 2986 2983 2978 2973 2969 2962 2955 2948 2942 2935 2927 2920 2913 2906 2899 2893 2886 2880 2875 2871 2867 2865 2861 2859 2857 2855 2853 2851 2849
2993 2994 2996 2996 2997 2997 2997 2996 2996 2994 2992 2991 2989 2986 2982 2978 2974 2969 2964 2958 2951 2945 2938 2932 2925 2918 2912 2905 2898 2892 2886 2880 2873 2868 2863 2860 2856 2853 2850 2848 2846 2844 2842 2840
2990 2991 2992 2992 2993 2993 2991 2990 2990 2988 2985 2984 2980 2977 2974 2969 2964 2959 2953 2947 2942 2935 2929 2923 2916 2910 2903 2897 2891 2885 2879 2874 2868 2863 2858 2854 2850 2846 2843 2840 2838 2836 2834 2832
2987 2987 2987 2988 2988 2987 2986 2984 2983 2980 2978 2976 2972 2968 2964 2960 2954 2949 2944 2938 2932 2926 2919 2913 2907 2901 2896 2890 2884 2879 2873 2868 2863 2857 2852 2848 2844 2840 2837 2834 2831 2829 2826 2824
2984 2983 2983 2983 2983 2981 2980 2978 2976 2973 2971 2967 2963 2959 2955 2950 2945 2939 2934 2928 2922 2917 2910 2904 2898 2893 2888 2883 2878 2872 2867 2862 2857 2851 2846 2842 2837 2834 2830 2827 2824 2822 2819 2816
2980 2979 2979 2978 2976 2975 2973 2971 2968 2965 2962 2959 2954 2949 2945 2940 2935 2930 2924 2918 2912 2907 2902 2896 2891 2886 2881 2876 2871 2866 2861 2856 2851 2846 2841 2837 2833 2828 2824 2821 2817 2814 2811 2808
Wind_Speed
14 13 18 13 13 11 11 16 18 16 17 17 17 14 17 12 10 15 16 18 22 27 32 34 38 41 41 40 35 34 36 35 39 37 41 38 41 34 34 36 31 32 39 42
15 18 18 15 13 19 21 17 16 15 17 11 10 7 9 12 10 12 19 21 26 30 33 36 40 40 36 33 35 37 35 35 37 39 44 41 41 40 32 29 31 36 40 40
13 15 19 20 24 23 20 20 20 18 16 13 15 14 13 16 15 15 17 21 25 29 35 37 35 32 32 36 39 38 34 38 39 42 41 43 36 27 28 30 33 36 38 39
9 10 1 16 7 10 8 5 10 10 13 12 10 10 10 14 17 19 20 23 26 28 31 32 33 35 38 41 41 39 38 42 44 49 36 22 27 28 31 33 34 36 37 36
7 12 12 13 11 12 11 6 8 10 13 14 12 13 14 18 18 17 18 19 19 21 25 29 33 36 38 40 42 42 43 46 43 28 23 27 27 30 32 34 35 36 34 33
11 5 6 4 7 9 8 6 10 14 16 15 9 11 19 15 15 16 17 19 24 28 27 27 30 32 35 38 41 45 48 37 26 24 23 25 29 31 34 36 38 37 34 33
19 11 8 14 11 11 10 10 14 12 12 11 18 17 16 19 18 21 25 29 30 29 30 31 33 33 35 40 44 40 30 25 23 22 23 26 30 33 36 38 39 37 35 35
15 9 10 14 14 13 13 13 13 13 15 21 18 17 20 21 24 27 28 31 32 31 31 32 32 35 39 38 32 26 23 20 19 23 27 28 30 32 35 36 37 36 35 35
9 4 6 9 11 11 12 13 14 18 19 20 19 19 21 23 25 27 28 28 28 27 28 30 32 35 34 27 24 18 16 19 23 26 30 33 33 34 34 35 36 37 36 34
11 8 10 16 16 16 16 18 19 19 18 17 20 26 25 26 25 23 22 22 21 22 24 27 30 26 21 17 15 17 20 23 27 30 32 35 37 38 39 38 37 35 34 34
14 17 13 16 19 19 20 21 19 19 19 20 22 24 24 23 22 20 21 23 23 27 24 23 20 18 17 18 20 22 25 27 30 34 36 38 39 40 40 38 37 35 31 31
20 21 22 22 23 24 22 22 22 21 22 20 19 20 20 20 22 23 23 24 24 22 20 18 16 16 19 22 25 28 31 33 35 37 38 41 42 42 40 37 33 32 31 32
19 18 20 22 23 23 23 24 23 22 19 20 21 21 22 24 22 21 22 21 18 17 15 15 16 18 23 27 31 35 38 40 42 45 47 47 48 44 38 35 32 31 30 32
21 21 24 24 24 23 22 22 22 21 22 22 21 21 19 15 16 17 17 16 14 14 16 18 21 24 29 32 36 39 41 44 46 47 48 49 47 40 38 37 36 34 28 29
23 24 23 21 21 22 22 22 22 23 21 18 15 12 11 12 14 16 15 14 14 16 20 23 26 30 33 36 38 41 44 47 49 50 49 43 41 43 43 38 41 33 31 28
23 23 21 20 19 20 22 23 21 17 14 13 11 11 12 13 14 15 15 17 18 21 25 29 32 35 39 42 45 48 49 50 49 49 48 44 40 44 41 44 41 38 39 33
21 20 20 20 21 22 20 14 13 12 10 10 11 12 13 14 15 16 18 21 24 28 31 35 38 41 45 47 50 51 52 54 52 50 46 42 39 40 38 41 32 36 37 31
21 20 21 23 20 13 12 11 10 10 10 11 12 13 14 16 18 20 23 26 29 33 36 40 43 46 48 49 52 54 55 54 52 48 44 39 32 28 33 33 29 28 28 26
21 20 19 14 9 10 10 9 9 10 11 12 13 15 18 20 22 24 27 31 34 37 40 44 47 49 51 54 55 55 52 50 48 44 39 32 25 24 32 28 29 27 26 26
16 11 10 10 11 9 9 9 10 10 11 13 15 18 21 23 25 28 31 35 38 42 46 48 49 51 53 53 52 50 48 46 43 37 29 21 15 22 26 27 27 31 30 29
12 12 11 10 10 10 9 9 10 11 14 16 18 20 22 25 28 32 35 38 42 44 47 48 50 51 51 49 47 45 43 41 37 30 24 28 29 35 37 35 32 30 30 29
11 10 10 10 10 10 10 10 12 15 17 19 21 24 26 29 32 35 39 42 44 45 47 48 48 47 45 44 43 42 40 38 35 30 29 30 32 32 30 28 27 27 27 26
10 10 10 10 10 10 11 13 15 18 22 24 25 27 30 32 35 39 42 43 44 45 46 44 43 41 40 39 39 38 37 35 32 29 27 28 27 27 26 26 25 25 24 24
10 11 11 12 12 12 15 17 19 23 27 27 29 31 32 35 39 41 42 43 43 42 42 40 38 37 37 37 36 35 34 32 31 29 27 27 27 26 26 26 25 25 24 23
12 13 14 14 15 17 20 24 27 28 28 28 31 33 36 39 40 41 41 41 40 39 38 38 37 36 35 34 34 33 32 32 30 29 28 27 26 26 25 24 24 23 23 24
14 16 16 17 19 21 24 27 28 29 29 30 33 37 39 40 40 39 38 39 38 36 35 36 36 35 34 33 32 32 31 30 29 28 27 27 26 26 26 26 26 26 26 26
17 19 18 19 22 25 26 26 28 30 31 33 36 38 39 39 39 37 37 37 36 35 35 35 35 34 32 31 31 30 29 28 27 26 25 25 25 24 24 23 23 24 24 25
Wind_Direction
229 255 282 291 249 240 271 265 243 264 271 290 289 289 265 261 246 242 241 236 241 243 244 251 262 272 277 283 281 280 284 281 290 289 290 302 289 290 288 296 309 316 312 312
244 248 263 278 279 263 258 264 267 275 290 282 284 306 202 215 230 240 239 240 244 246 258 268 274 275 279 283 283 285 282 285 286 292 291 288 288 286 304 315 326 315 311 312
245 257 271 277 265 272 277 259 260 272 283 267 273 282 282 266 256 266 244 245 251 256 261 272 273 281 287 285 285 285 288 285 279 280 282 287 302 312 332 326 312 310 311 314
225 245 291 273 273 241 253 243 232 244 254 253 258 268 269 275 279 283 254 257 261 265 271 278 277 279 282 284 287 289 289 287 289 287 299 313 337 330 318 317 316 316 315 316
217 212 257 248 268 242 245 224 240 239 250 260 265 275 280 291 292 274 262 267 272 273 282 283 280 281 284 285 286 288 289 286 284 303 324 347 324 319 317 317 317 315 316 312
213 201 208 218 226 233 232 199 254 268 267 268 267 286 303 282 264 266 267 271 282 290 289 289 288 291 291 288 285 281 278 288 299 328 344 322 317 315 317 317 317 317 315 312
222 225 247 237 244 247 245 235 242 254 269 281 306 303 289 283 279 273 276 287 293 296 296 294 295 294 293 292 284 286 296 293 326 337 318 316 315 318 317 316 315 317 317 314
219 225 252 227 230 240 248 241 243 257 276 294 296 289 276 280 278 281 284 291 297 300 301 301 301 295 285 283 293 296 305 332 321 313 312 315 317 315 312 311 313 315 314 312
211 224 217 224 232 236 239 250 251 277 287 292 289 280 281 281 282 285 291 298 302 304 302 297 292 290 289 298 300 317 314 311 312 311 314 314 314 314 316 316 316 313 309 306
222 240 253 242 243 253 257 269 278 283 285 287 287 287 288 292 298 302 300 296 292 286 285 287 287 293 297 301 303 307 308 310 311 312 314 316 317 318 320 320 316 310 308 306
229 237 222 230 246 255 264 273 283 292 295 292 289 290 298 300 298 288 280 283 283 289 288 289 292 298 304 306 304 305 309 312 314 315 316 315 314 316 317 317 316 314 310 305
232 240 241 248 254 263 274 280 291 293 295 294 294 294 288 280 275 278 290 292 288 285 291 297 305 301 299 305 308 309 312 314 314 312 312 312 314 312 311 314 315 313 312 310
256 264 262 256 260 267 274 282 288 288 287 290 288 284 280 279 282 281 285 288 296 300 298 293 296 305 305 307 310 313 315 315 316 316 315 312 308 306 308 312 313 316 313 312
258 259 258 262 266 272 274 277 279 282 287 290 285 287 288 290 278 281 289 295 297 295 298 303 306 308 309 313 314 314 313 312 311 309 306 303 301 305 307 310 309 308 311 314
260 263 266 268 268 270 274 279 283 289 292 295 293 290 286 283 285 292 300 300 297 298 301 304 306 308 311 311 310 308 308 307 306 304 303 303 300 300 304 304 302 301 306 305
263 266 269 268 267 269 273 280 286 293 291 284 290 291 292 295 296 298 300 298 297 297 300 305 309 311 311 310 310 309 309 308 307 306 305 301 290 289 289 298 293 304 311 303
264 265 265 264 263 270 281 286 284 282 288 288 290 294 297 298 298 297 297 299 300 302 306 309 311 312 312 312 312 312 312 312 311 310 307 303 293 285 291 288 297 303 301 293
269 265 262 265 273 278 274 272 275 280 286 292 296 299 300 299 297 295 296 299 302 307 310 311 312 312 313 314 316 316 315 314 313 311 310 306 300 283 287 301 307 298 289 293
264 259 261 272 273 258 254 262 270 280 290 297 302 302 301 299 298 299 303 305 309 310 312 313 316 317 319 319 317 316 315 314 313 311 308 305 304 293 291 290 297 292 291 295
260 259 251 235 240 241 249 259 273 284 292 298 300 300 300 300 302 304 308 312 315 317 317 319 319 319 319 318 318 317 317 316 316 313 307 293 296 282 296 283 281 287 289 288
226 225 224 229 237 245 255 268 279 290 297 300 300 299 300 303 308 312 314 314 315 317 319 320 319 319 319 320 320 321 321 320 316 309 293 291 279 279 285 289 288 286 289 287
208 213 223 233 242 254 267 278 289 298 301 304 305 306 308 310 311 313 315 317 319 320 320 319 319 320 321 323 323 325 326 326 320 310 300 291 289 289 289 288 287 288 288 287
223 227 232 240 252 266 276 284 296 306 309 309 306 306 308 310 312 316 317 319 319 319 320 320 320 322 323 324 326 328 331 334 331 321 312 307 303 298 295 291 287 285 286 289
233 238 245 255 265 273 281 290 302 307 305 304 306 308 310 314 316 318 320 318 318 319 319 320 322 323 324 325 327 327 329 331 333 330 321 315 311 306 300 296 292 291 291 292
244 254 264 271 278 286 289 294 301 303 303 307 307 309 313 316 317 318 317 317 318 319 320 322 323 324 324 324 326 327 327 328 328 326 324 319 315 314 312 307 303 299 298 297
263 265 265 273 281 286 291 295 298 299 303 307 309 311 313 316 316 316 317 316 318 320 321 323 323 323 323 324 325 326 326 325 326 327 324 324 319 313 309 308 307 305 303 301
258 261 266 274 287 290 292 295 297 301 305 308 309 311 314 315 315 317 317 317 319 320 321 323 322 321 321 323 323 325 325 326 328 329 327 328 327 325 321 316 312 308 305 302